Date String (YYYY-MM-DD hh:mm:ss) UTC,Instrument flags,Ambient pressure (hPa),Sample flow (lpm),Bypass flow (lpm),Sample temperature (°C),Ambient temperature (°C),ASC tube jacket temperature (°C),LED temperature (°C),Box temperature (°C),Sample RH (%),Mass concentration (μg/m³),Mass concentration (μg/m³)
DateTimeUTC,F1_M11,P_M11,Q1_M11,Q2_M11,T1_M11,T2_M11,T3_M11,T4_M11,T5_M11,U1_M11,X0_M11,X2_M11
2021-08-12 01:00:00,FlowAlarm;OPCInstrumentWarning,0826.7,4.99,0.00,28.7,26.4,00.0,37.9,30.6,21.0,0049.04,0029.61
2021-08-12 01:01:00,FlowAlarm;OPCInstrumentWarning,0826.7,5.01,0.00,28.7,26.8,00.0,37.9,30.7,20.8,0048.68,0029.71
2021-08-12 01:02:00,FlowAlarm;OPCInstrumentWarning,0826.8,5.01,0.00,28.8,27.2,00.0,37.9,30.7,20.9,0049.35,0029.79
2021-08-12 01:03:00,FlowAlarm;OPCInstrumentWarning,0826.8,4.98,0.00,28.8,27.6,00.0,37.9,30.9,20.7,0050.35,0029.77
2021-08-12 01:04:00,FlowAlarm;OPCInstrumentWarning,0826.8,5.00,0.00,28.9,27.9,00.0,38.0,31.0,20.7,0051.78,0029.87
2021-08-12 01:05:00,FlowAlarm;OPCInstrumentWarning,0826.8,4.99,0.00,29.0,28.1,00.0,38.0,31.1,20.8,0052.63,0029.92
2021-08-12 01:06:00,FlowAlarm;OPCInstrumentWarning,0826.8,5.00,0.00,29.0,27.0,00.0,38.0,30.7,20.8,0053.72,0030.00
2021-08-12 01:07:00,FlowAlarm;OPCInstrumentWarning,0826.9,5.00,0.00,28.8,25.6,00.0,38.0,30.3,20.8,0054.32,0030.09
2021-08-12 01:08:00,FlowAlarm;OPCInstrumentWarning,0826.8,5.00,0.00,28.7,25.8,00.0,37.9,30.4,20.9,0053.02,0030.08
2021-08-12 01:09:00,FlowAlarm;OPCInstrumentWarning,0827.0,5.00,0.00,28.7,26.2,00.0,37.9,30.5,21.3,0052.76,0030.22
2021-08-12 01:10:00,FlowAlarm;OPCInstrumentWarning,0827.1,5.00,0.00,28.7,26.6,00.0,37.9,30.6,21.4,0051.77,0030.21
2021-08-12 01:11:00,FlowAlarm;OPCInstrumentWarning,0826.9,5.01,0.00,28.7,27.1,00.0,37.9,30.7,21.3,0051.29,0030.23
2021-08-12 01:12:00,FlowAlarm;OPCInstrumentWarning,0826.9,5.00,0.00,28.8,27.4,00.0,37.9,30.8,21.3,0052.40,0030.28
2021-08-12 01:13:00,FlowAlarm;OPCInstrumentWarning,0826.9,5.00,0.00,28.9,27.8,00.0,37.9,30.9,21.2,0053.16,0030.35
2021-08-12 01:14:00,FlowAlarm;OPCInstrumentWarning,0826.9,5.01,0.00,28.9,28.1,00.0,38.0,31.1,21.5,0053.51,0030.48
2021-08-12 01:15:00,FlowAlarm;OPCInstrumentWarning,0826.9,5.00,0.00,29.0,27.9,00.0,38.0,31.0,21.7,0053.04,0030.53
2021-08-12 01:16:00,FlowAlarm;OPCInstrumentWarning,0827.0,4.99,0.00,28.9,26.3,00.0,38.0,30.6,21.8,0054.06,0030.58
2021-08-12 01:17:00,FlowAlarm;OPCInstrumentWarning,0826.9,5.00,0.00,28.8,25.6,00.0,37.9,30.4,22.1,0053.92,0030.59
2021-08-12 01:18:00,FlowAlarm;OPCInstrumentWarning,0826.9,5.01,0.00,28.7,25.9,00.0,37.9,30.5,22.6,0053.54,0030.68
2021-08-12 01:19:00,FlowAlarm;OPCInstrumentWarning,0826.9,4.99,0.00,28.7,26.3,00.0,37.9,30.5,22.7,0052.99,0030.76
2021-08-12 01:20:00,FlowAlarm;OPCInstrumentWarning,0826.9,5.00,0.00,28.7,26.8,00.0,37.9,30.6,22.2,0053.45,0030.72
2021-08-12 01:21:00,FlowAlarm;OPCInstrumentWarning,0827.0,5.01,0.00,28.8,27.3,00.0,37.9,30.8,22.3,0054.28,0030.79
2021-08-12 01:22:00,FlowAlarm;OPCInstrumentWarning,0827.0,5.00,0.00,28.8,27.6,00.0,37.9,30.9,22.3,0053.72,0030.82
2021-08-12 01:23:00,FlowAlarm;OPCInstrumentWarning,0827.2,4.99,0.00,28.9,27.9,00.0,37.9,31.0,22.4,0052.54,0030.78
2021-08-12 01:24:00,FlowAlarm;OPCInstrumentWarning,0827.1,5.00,0.00,28.9,27.7,00.0,38.0,30.9,22.4,0050.98,0030.71
2021-08-12 01:25:00,FlowAlarm;OPCInstrumentWarning,0827.2,5.01,0.00,28.9,26.3,00.0,37.9,30.5,22.2,0050.26,0030.70
2021-08-12 01:26:00,FlowAlarm;OPCInstrumentWarning,0827.3,5.00,0.00,28.7,25.5,00.0,37.9,30.3,22.0,0050.92,0030.62
2021-08-12 01:27:00,FlowAlarm;OPCInstrumentWarning,0827.3,5.01,0.00,28.6,25.8,00.0,37.9,30.3,22.0,0051.49,0030.61
2021-08-12 01:28:00,FlowAlarm;OPCInstrumentWarning,0827.0,4.99,0.00,28.6,26.2,00.0,37.9,30.4,21.9,0051.76,0030.59
2021-08-12 01:29:00,FlowAlarm;OPCInstrumentWarning,0827.0,5.00,0.00,28.6,26.6,00.0,37.8,30.5,21.9,0051.47,0030.55
2021-08-12 01:30:00,FlowAlarm;OPCInstrumentWarning,0827.0,5.00,0.00,28.6,27.1,00.0,37.8,30.6,21.7,0050.83,0030.54
2021-08-12 01:31:00,FlowAlarm;OPCInstrumentWarning,0827.0,5.00,0.00,28.7,27.5,00.0,37.9,30.8,21.5,0051.70,0030.54
2021-08-12 01:32:00,FlowAlarm;OPCInstrumentWarning,0827.1,5.00,0.00,28.8,27.8,00.0,37.9,30.9,21.5,0052.68,0030.50
2021-08-12 01:33:00,FlowAlarm;OPCInstrumentWarning,0827.1,4.99,0.00,28.9,28.1,00.0,37.9,31.0,21.3,0053.59,0030.59
2021-08-12 01:34:00,FlowAlarm;OPCInstrumentWarning,0827.0,5.01,0.00,28.9,28.0,00.0,37.9,31.0,21.0,0055.24,0030.64
2021-08-12 01:35:00,FlowAlarm;OPCInstrumentWarning,0827.0,5.01,0.00,28.9,26.5,00.0,37.9,30.5,20.8,0054.95,0030.64
2021-08-12 01:36:00,FlowAlarm;OPCInstrumentWarning,0827.0,4.98,0.00,28.7,25.5,00.0,37.9,30.2,20.7,0054.83,0030.62
2021-08-12 01:37:00,FlowAlarm;OPCInstrumentWarning,0827.0,5.01,0.00,28.6,25.7,00.0,37.9,30.3,20.6,0053.35,0030.64
2021-08-12 01:38:00,FlowAlarm;OPCInstrumentWarning,0827.0,4.99,0.00,28.6,26.1,00.0,37.9,30.4,20.3,0051.29,0030.68
2021-08-12 01:39:00,FlowAlarm;OPCInstrumentWarning,0827.0,5.00,0.00,28.6,26.6,00.0,37.8,30.5,20.1,0050.80,0030.62
2021-08-12 01:40:00,FlowAlarm;OPCInstrumentWarning,0827.0,4.99,0.00,28.6,27.0,00.0,37.8,30.6,19.9,0052.31,0030.57
2021-08-12 01:41:00,FlowAlarm;OPCInstrumentWarning,0827.0,5.00,0.00,28.7,27.4,00.0,37.8,30.8,19.7,0052.43,0030.52
2021-08-12 01:42:00,FlowAlarm;OPCInstrumentWarning,0827.3,5.00,0.00,28.8,27.7,00.0,37.9,30.9,19.6,0053.07,0030.50
2021-08-12 01:43:00,FlowAlarm;OPCInstrumentWarning,0827.3,5.00,0.00,28.8,28.0,00.0,37.9,30.9,19.4,0053.53,0030.44
2021-08-12 01:44:00,FlowAlarm;OPCInstrumentWarning,0827.5,5.00,0.00,28.9,28.0,00.0,37.9,30.9,19.1,0052.52,0030.33
2021-08-12 01:45:00,FlowAlarm;OPCInstrumentWarning,0827.3,5.00,0.00,28.9,26.7,00.0,37.9,30.6,19.0,0050.96,0030.26
2021-08-12 01:46:00,FlowAlarm;OPCInstrumentWarning,0827.5,5.00,0.00,28.7,25.4,00.0,37.9,30.3,18.9,0051.32,0030.28
2021-08-12 01:47:00,FlowAlarm;OPCInstrumentWarning,0827.2,4.99,0.00,28.6,25.5,00.0,37.9,30.3,18.9,0050.75,0030.17
2021-08-12 01:48:00,FlowAlarm;OPCInstrumentWarning,0827.1,5.02,0.00,28.5,25.9,00.0,37.8,30.3,18.9,0051.53,0030.11
2021-08-12 01:49:00,FlowAlarm;OPCInstrumentWarning,0827.1,5.00,0.00,28.5,26.4,00.0,37.8,30.4,18.9,0052.55,0030.08
2021-08-12 01:50:00,FlowAlarm;OPCInstrumentWarning,0827.2,4.99,0.00,28.6,26.8,00.0,37.8,30.6,18.7,0053.32,0030.06
2021-08-12 01:51:00,FlowAlarm;OPCInstrumentWarning,0827.2,4.99,0.00,28.6,27.2,00.0,37.8,30.7,18.6,0051.52,0030.02
2021-08-12 01:52:00,FlowAlarm;OPCInstrumentWarning,0827.2,5.01,0.00,28.7,27.6,00.0,37.8,30.8,18.4,0051.09,0030.06
2021-08-12 01:53:00,FlowAlarm;OPCInstrumentWarning,0827.2,5.00,0.00,28.8,27.9,00.0,37.8,30.9,18.3,0048.65,0030.08
2021-08-12 01:54:00,FlowAlarm;OPCInstrumentWarning,0827.2,5.00,0.00,28.8,28.1,00.0,37.9,31.0,18.2,0047.33,0030.14
2021-08-12 01:55:00,FlowAlarm;OPCInstrumentWarning,0827.2,4.99,0.00,28.9,27.7,00.0,37.9,30.9,18.1,0049.18,0030.13
2021-08-12 01:56:00,FlowAlarm;OPCInstrumentWarning,0827.2,5.01,0.00,28.8,26.0,00.0,37.9,30.4,18.1,0049.67,0030.21
2021-08-12 01:57:00,FlowAlarm;OPCInstrumentWarning,0827.2,5.00,0.00,28.7,25.3,00.0,37.9,30.2,18.2,0049.30,0030.18
2021-08-12 01:58:00,FlowAlarm;OPCInstrumentWarning,0827.2,4.99,0.00,28.6,25.6,00.0,37.8,30.2,18.3,0049.81,0030.16
2021-08-12 01:59:00,FlowAlarm;OPCInstrumentWarning,0827.2,5.01,0.00,28.5,26.0,00.0,37.8,30.3,18.3,0048.89,0030.11
